Home   Weather   Sydney   Past weeks
Flag for Australia

Past Weather in Sydney, New South Wales, Australia — Yesterday and Last 2 Weeks

Now
46 °F

Clear.


Feels Like: 42 °F
Forecast: 68 / 43 °F
Wind: 8 mph from Northwest

Location: Sydney Airport

Current Time: Jul 20, 2019 at 4:51:07 am

Latest Report: Jul 20, 2019 at 4:00 am


Visibility: 10 mi

Pressure: 30.18 "Hg

Humidity: 82%

Dew Point: 41 °F

Location of SydneyLocation

Past Weather in Sydney — Graph

°F

Sydney Temperature Yesterday

Maximum temperature yesterday: 66 °F (at 2:00 pm)
Minimum temperature yesterday: 45 °F (at 5:30 am)
Average temperature yesterday: 55 °F

High & Low Weather Summary for the Past Weeks

 TemperatureHumidityPressure
High70 °F (Jul 8, 1:30 pm)100% (Jul 6, 4:30 am)30.60 "Hg (Jul 6, 4:30 am)
Low45 °F (Jul 14, 5:00 am)21% (Jul 11, 3:00 pm)29.74 "Hg (Jul 11, 4:30 am)
Average57 °F58%30.11 "Hg
* Reported Jul 5 3:00 am — Jul 20 3:30 am, Sydney. Weather by CustomWeather, © 2019

Note: Actual official high and low records may vary slightly from our data, if they occured in-between our weather recording intervals... More about our weather records

Advertising

Sydney Weather History for the Previous 24 Hours

Scroll right to see more
 ConditionsComfort  
Time TempWeatherWind HumidityBarometerVisibility
3:30 am
Sat, Jul 20
46 °FClear.9 mph82%30.18 "Hg10 mi
3:00 am48 °FClear.9 mph76%30.21 "Hg10 mi
2:30 am48 °FClear.9 mph76%30.21 "Hg10 mi
2:00 am50 °FClear.9 mph76%30.21 "Hg10 mi
1:30 am50 °FClear.6 mph71%30.21 "Hg10 mi
1:00 am50 °FClear.8 mph76%30.21 "Hg10 mi
12:30 am52 °FClear.6 mph72%30.21 "Hg10 mi
12:00 am54 °FClear.8 mph67%30.21 "Hg10 mi
11:30 pm
Fri, Jul 19
54 °FClear.7 mph63%30.21 "Hg10 mi
11:00 pm54 °FClear.7 mph63%30.21 "Hg10 mi
10:30 pm55 °FClear.7 mph59%30.21 "Hg10 mi
10:00 pm55 °FClear.10 mph59%30.21 "Hg10 mi
9:30 pm55 °FClear.12 mph59%30.21 "Hg10 mi
9:00 pm57 °FClear.10 mph59%30.18 "Hg10 mi
8:30 pm55 °FClear.8 mph63%30.18 "Hg10 mi
8:00 pm57 °FClear.6 mph63%30.18 "Hg10 mi
7:30 pm57 °FClear.1 mph63%30.18 "Hg10 mi
7:00 pm59 °FClear.No wind59%30.15 "Hg10 mi
6:30 pm61 °FClear.3 mph55%30.15 "Hg10 mi
6:00 pm61 °FClear.6 mph52%30.12 "Hg10 mi
5:30 pm61 °FClear.6 mph48%30.12 "Hg10 mi
5:00 pm61 °FSunny.7 mph42%30.12 "Hg10 mi
4:30 pm63 °FSunny.8 mph39%30.09 "Hg10 mi
4:00 pm64 °FSunny.9 mph37%30.09 "Hg10 mi
3:30 pm66 °FSunny.7 mph32%30.09 "Hg10 mi
3:00 pm66 °FSunny.8 mph30%30.09 "Hg10 mi
2:30 pm66 °FSunny.8 mph30%30.09 "Hg10 mi
2:00 pm66 °FPassing clouds.7 mph30%30.07 "HgN/A
1:30 pm64 °FPassing clouds.7 mph49%30.07 "HgN/A
1:00 pm64 °FSunny.8 mph43%30.07 "Hg10 mi
12:30 pm64 °FSunny.10 mph46%30.09 "Hg10 mi
12:00 pm64 °FSunny.12 mph40%30.09 "Hg10 mi
11:30 am64 °FSunny.13 mph43%30.09 "Hg10 mi
11:00 am63 °FSunny.15 mph42%30.09 "Hg10 mi
10:00 am57 °FSunny.16 mph48%30.12 "Hg10 mi
9:30 am55 °FSunny.10 mph47%30.12 "Hg10 mi
9:00 am54 °FSunny.14 mph47%30.09 "Hg10 mi
8:30 am52 °FSunny.12 mph50%30.12 "Hg10 mi
8:00 am50 °FSunny.13 mph54%30.09 "Hg10 mi
7:30 am48 °FSunny.10 mph58%30.09 "Hg10 mi
7:00 am48 °FSunny.12 mph58%30.09 "Hg10 mi
6:30 am48 °FClear.13 mph54%30.09 "Hg10 mi
6:00 am48 °FClear.15 mph54%30.07 "Hg10 mi
5:30 am45 °FClear.9 mph66%30.07 "Hg10 mi
5:00 am46 °FClear.9 mph62%30.07 "Hg10 mi
4:30 am46 °FClear.7 mph57%30.07 "Hg10 mi
4:00 am48 °FClear.7 mph54%30.07 "Hg10 mi
Weather by CustomWeather, © 2019

See weather overview